Simultaneous Nadir Overpasses (SNOs) Predictions

Prediction of SNOs between GOES-14 and AQUA Satellite Orbit:

Table of predicted SNOs for the next 14.0 days since TLE Epoch: 2/1/2019
Index Date Time (GOES-14) GOES-14 Lat,Lon AQUA Lat,Lon Distance(km) Time Diff (sec)
1 02/02/2019 08:23:38 0.01,-104.36 -0.55,-101.73 298.90 80
2 02/02/2019 20:45:02 -0.02,-104.13 -0.61,-106.91 315.63 80
3 02/04/2019 20:30:11 -0.01,-104.14 0.01,-103.95 20.99 80
4 02/06/2019 20:18:01 -0.01,-104.14 0.69,-101.00 357.64 80
5 02/07/2019 08:39:16 0.01,-104.37 0.42,-106.16 204.28 80
6 02/09/2019 08:29:46 0.01,-104.37 -0.27,-103.21 132.79 80
7 02/09/2019 20:51:10 -0.01,-104.16 -0.89,-108.39 481.06 80
8 02/11/2019 08:17:35 0.00,-104.38 -0.89,-100.25 469.79 80
9 02/11/2019 20:38:59 -0.01,-104.17 -0.26,-105.44 144.18 80
10 02/13/2019 20:24:08 -0.00,-104.17 0.37,-102.48 192.39 80
11 02/14/2019 08:45:24 0.00,-104.38 0.68,-107.64 370.51 80




NCC Satellite Simultaneous Nadir Overpasses (SNOs) Prediction Service
